Regional Weather Roundup
Issued by NWS Jackson, KY

Home | Current Version | Previous Version | Graphics & Text | Print | Product List | Glossary On
Versions: 1 2 3 4 5 6 7 8 9 10 11 12 13 14 15 16 17 18 19 20 21 22 23 24 25 26 27 28 29 30 31 32 33 34 35 36 37 38 39 40 41 42 43 44 45 46 47 48 49 50
000
ASUS43 KJKL 251810
RWRJKL

EAST KENTUCKY HOURLY WEATHER ROUNDUP
NATIONAL WEATHER SERVICE JACKSON KY
100 PM EST SAT FEB 25 2017

NOTE: "FAIR" INDICATES FEW OR NO CLOUDS BELOW 12,000 FEET WITH
NO SIGNIFICANT WEATHER AND/OR OBSTRUCTIONS TO VISIBILITY.

* THESE REPORTS ARE NOT UNDER NWS QUALITY CONTROL AND MAY NOT
  REPORT WEATHER SUCH AS PRECIPITATION AND FOG.

KYZ079-080-083-085-087-088-110-112-115-119-120-251900
...EASTERN KENTUCKY...

CITY           SKY/WX    TMP DP  RH WIND       PRES   REMARKS
JACKSON        PTSUNNY   41  28  60 W16G23    29.86R
6HR MIN TEMP:  41; 6HR MAX TEMP:  49;

LONDON         PTSUNNY   40  25  55 W17G24    29.92R WCI  31
6HR MIN TEMP:  39; 6HR MAX TEMP:  47;

SOMERSET*      CLOUDY    41  25  52 W15G26    29.97S
MONTICELLO*    PTSUNNY   45  27  49 W23       29.97R
6HR MIN TEMP:  39; 6HR MAX TEMP:  45;

WILLIAMSBURG*  MOCLDY    43  28  56 W16G23    29.92R
MIDDLESBORO*   PTSUNNY   50  33  52 W14       29.88R
6HR MIN TEMP:  47; 6HR MAX TEMP:  53;

HARLAN APT*    PTCLDY    46  28  49 SW14G25   29.85R
PIKE CO APT*   CLOUDY    46  32  59 W17G23    29.81R
BIG SANDY APT* MOCLDY    46  31  57 W13G23    29.82S
6HR MIN TEMP:  46; 6HR MAX TEMP:  49;

MOREHEAD APT*  CLOUDY    37  23  56 W14G20    29.91R WCI  29
ASHLAND*       CLOUDY    45  28  53 NW12G29   29.84R
$$

KYZ035-036-041-042-044-050-067-078-099-251900
...CENTRAL KENTUCKY...

CITY           SKY/WX    TMP DP  RH WIND       PRES   REMARKS
FLEMING/MASON* CLOUDY    35  23  62 W17G28    29.90R WCI  25
DANVILLE*      CLOUDY    36  21  55 NW15G22   29.96R WCI  26
LEXINGTON      CLOUDY    35  21  56 W15G25    29.93R WCI  25
6HR MIN TEMP:  35; 6HR MAX TEMP:  42;

FRANKFORT      CLOUDY    36  20  52 W16G24    29.93R WCI  26
6HR MIN TEMP:  35; 6HR MAX TEMP:  43;

LOUISVILLE     CLOUDY    35  19  52 W20       29.99R WCI  24
6HR MIN TEMP:  34; 6HR MAX TEMP:  41; 6HR PCP: TRACE;

LEBANON*       CLOUDY    36  19  51 W18       29.98R WCI  25
GLASGOW*       CLOUDY    40  24  53 W13G21    30.01S WCI  32
BOWLING GREEN  CLOUDY    40  19  43 W15G22    30.04R WCI  32
6HR MIN TEMP:  37; 6HR MAX TEMP:  41;

$$

KYZ091>093-OHZ055-061-077-WVZ005-015-034-035-042-251900
...SOUTHERN OHIO/WEST VIRGINIA...

CITY           SKY/WX    TMP DP  RH WIND       PRES   REMARKS
COVINGTON      CLOUDY    31  22  69 W18G29    29.89R WCI  19
COLUMBUS       FLURRIES  40  28  62 SW22      29.77R WCI  30
DAYTON         CLOUDY    30  20  66 W25G33    29.84R WCI  16
WILMINGTON     CLOUDY    32  25  75 W22G35    29.83R WCI  19
HUNTINGTON     PTSUNNY   44  29  55 W18G29    29.83R
CHARLESTON     PTSUNNY   49  30  48 W15G37    29.75R
PINEVILLE*     DRIZZLE   47  37  66 MISG      29.79R
BECKLEY        PTSUNNY   48  36  63 W16G26    29.70F
BLUEFIELD      PTSUNNY   48  34  58 W21G33    29.71F
LOGAN CO APT*  MOCLDY    50  36  57 W13G21    29.77R
$$

VAZ002-007-008-TNZ017-027-036-066-071-251900
...SOUTHWEST VIRGINIA/EAST TENNESSEE...

CITY           SKY/WX    TMP DP  RH WIND       PRES   REMARKS
WISE*          PTSUNNY   46  32  57 W14G21    29.78S
JONESVILLE*      N/A     54  32  43 W14G25    29.85R
ABINGDON*      CLOUDY    52  39  60 W12G23    29.76S
BRISTOL        MOSUNNY   57  37  47 W22G28    29.77F
MORRISTOWN*    PTCLDY    55  27  33 W17G32    29.82S
SEVIERVILLE*   CLEAR     55  28  35 SW12      29.84S
KNOXVILLE      MOSUNNY   55  28  35 W18G26    29.86S
LAFOLLETTE*    PTCLDY    50  28  43 VRB5G18   29.91S
OAK RIDGE      SUNNY     53  27  36 W10G18    29.90R
CROSSVILLE     PTSUNNY   43  28  55 W17       29.92R
NASHVILLE      MOSUNNY   45  18  34 NW16G23   30.03R
$$

...KEY TO REMARKS...
VSB - VISIBILITY IN MILES
WCI - WIND CHILL INDEX
HX  - HEAT INDEX

$$



USA.gov is the U.S. government's official web portal to all federal, state and local government web resources and services.